Regional Weather Roundup
Issued by NWS

Home | Current Version | Previous Version | Text Only | Print | Product List | Glossary On
Versions: 1 2 3 4 5 6 7 8 9 10 11 12 13 14 15 16 17 18 19 20 21 22 23 24 25 26 27 28 29 30 31 32 33 34 35 36 37 38 39 40 41 42 43 44 45 46 47 48 49 50
000
ASUS45 KPSR 302010
RWRAZ

ARIZONA REGIONAL HOURLY WEATHER ROUNDUP
NATIONAL WEATHER SERVICE PHOENIX AZ
100 PM MST MON MAR 30 2015

NOTE: FAIR INDICATES FEW OR NO CLOUDS BELOW 12,000 FEET WITH NO
SIGNIFICANT WEATHER AND/OR OBSTRUCTIONS TO VISIBILITY.

AZZ001>003-036-302100-
NORTHWEST ARIZONA

CITY           SKY/WX    TMP DP  RH WIND       PRES   REMARKS
BULLHEAD CITY  SUNNY     90  23   9 SW6       29.98F
KINGMAN        SUNNY     83  19   9 W7G16     30.11F
$$

AZZ004>008-015-016-018-302100-
NORTH CENTRAL ARIZONA

CITY           SKY/WX    TMP DP  RH WIND       PRES   REMARKS
GRAND CANYON   SUNNY     69  16  13 VRB6G17   30.27F
WILLIAMS       SUNNY     70  16  12 SW9G20    30.35S
PRESCOTT       SUNNY     77  18  11 SE10      30.20F
FLAGSTAFF      SUNNY     67  16  14 SW13G20   30.30F
PAYSON         MOSUNNY   75  19  12 SW8G16    30.23F
PAGE           MOSUNNY   77  23  13 N7        30.14F
$$

AZZ009>014-017-302100-
NORTHEAST ARIZONA

CITY           SKY/WX    TMP DP  RH WIND       PRES   REMARKS
WINSLOW        SUNNY     78  16   9 VRB3      30.17F
SAINT JOHNS    PTSUNNY   73  14  10 W10G20    30.21F
WINDOW ROCK    MOSUNNY   72  14  11 W8        30.25F
SHOW LOW       MOSUNNY   70  18  13 SW18G30   30.29F
$$

AZZ023-302100-
GREATER PHOENIX AREA

CITY           SKY/WX    TMP DP  RH WIND       PRES   REMARKS
PHOENIX        PTSUNNY   92  25   9 E5        29.98F
BUCKEYE        MOSUNNY   90  28  11 SE7       29.99F
GLENDALE       MOSUNNY   91  27   9 CALM      30.00F
LUKE AFB       MOSUNNY   90  29  11 VRB2      29.98F
DEER VALLEY    MOSUNNY   89  23   9 VRB5      30.00F
SCOTTSDALE     SUNNY     89  22   8 CALM      30.02F
MESA-FALCON    PTSUNNY   91  25   9 SE10      30.01F
MESA-GATEWAY   MOSUNNY   90  30  12 CALM      30.02F
$$

AZZ027-028-302100-
SOUTHWEST MARICOPA COUNTY AND PINAL COUNTY

CITY           SKY/WX    TMP DP  RH WIND       PRES   REMARKS
CASA GRANDE    SUNNY     91  34  13 CALM      29.99F
GILA BEND      FAIR      93  24   8 NE3       29.96F
$$

AZZ503-504-507>509-302100-
SOUTHEAST ARIZONA

CITY           SKY/WX    TMP DP  RH WIND       PRES   REMARKS
TUCSON         PTSUNNY   90  24   9 CALM      30.07F
DAVIS-MONTHAN  MOSUNNY   88  25  10 W5        30.05F
RYAN FIELD       N/A     90  32  12 W8        30.06F
NOGALES        PTSUNNY   83  26  12 SW6       30.12F
SIERRA VISTA   MOSUNNY   81  22  11 E13       30.18F
DOUGLAS        SUNNY     82  27  13 VRB7      30.15F
SAFFORD        SUNNY     86  21   9 VRB3      30.08F
$$

AZZ020-021-025-026-031-302100-
SOUTHWEST ARIZONA

CITY           SKY/WX    TMP DP  RH WIND       PRES   REMARKS
YUMA           MOSUNNY   92  36  14 S6        29.95F
$$

CAZ031-033-041-043-047-048-061-302100-
SOUTHERN CALIFORNIA

CITY           SKY/WX    TMP DP  RH WIND       PRES   REMARKS
DOWNTOWN L.A.  SUNNY     77  57  50 VRB3      30.00F
L.A. AIRPORT   MOSUNNY   66  56  70 W13       30.03F
SAN DIEGO      MOSUNNY   70  55  59 VRB5      30.03F
BURBANK        SUNNY     80  49  33 S6        30.01F
ONTARIO        SUNNY     83  42  23 W10       30.00F
RIVERSIDE      SUNNY     83  40  21 NW6       30.00F
PALM SPRINGS   SUNNY     93  28  10 E9G18     29.96F
EL CENTRO NAS  MOSUNNY   91  46  21 VRB5      29.92F
IMPERIAL       SUNNY     91  42  18 VRB3      29.92F
BLYTHE         SUNNY     91  31  11 SW7       29.95F
NEEDLES        SUNNY     92  22   8 VRB3      29.97F
$$

NVZ020-UTZ003-302100-
SOUTHERN NEVADA-UTAH

CITY           SKY/WX    TMP DP  RH WIND       PRES   REMARKS
LAS VEGAS      MOSUNNY   86  21   9 VRB3      30.01F
SALT LAKE CITY MOSUNNY   69  25  19 W7        30.19F
$$

NMZ009-TXZ055-302100-
NEW MEXICO-WEST TEXAS

CITY           SKY/WX    TMP DP  RH WIND       PRES   REMARKS
ALBUQUERQUE    MOSUNNY   73  21  14 W8        30.21F
EL PASO        CLOUDY    77  34  21 SW6       30.15F
$$


........................KEY........................
SKY/WX - SKY CONDITION/WEATHER
TMP    - TEMPERATURE IN FAHRENHEIT
DP     - DEW POINT IN FAHRENHEIT
RH     - RELATIVE HUMIDITY IN PERCENT
WIND   - DIRECTION AND SPEED IN MILES PER HOUR (MPH)
VRB    - VARIABLE WIND DIRECTION
PRES   - MEAN SEA LEVEL PRESSURE IN INCHES OF MERCURY
         F - FALLING PRESSURE   R - RISING PRESSURE
         S - STEADY PRESSURE
VSB    - VISIBILITY IN MILES
HX     - HEAT INDEX IN FAHRENHEIT
WCI    - WIND CHILL INDEX IN FAHRENHEIT
TC     - TEMPERATURE IN CELSIUS WHICH IS ALSO KNOWN AS
         TEMPERATURE IN CENTIGRADE
AFB    - AIR FORCE BASE
         LUKE AFB IS LUKE AIR FORCE BASE
         DAVIS-MONTHAN IS DAVIS-MONTHAN AIR FORCE BASE
NAS    - NAVAL AIR STATION
         EL CENTRO NAS IS EL CENTRO NAVAL AIR STATION
N/A    - NOT AVAILABLE




USA.gov is the U.S. government's official web portal to all federal, state and local government web resources and services.